When you browse on this site, cookies collect data to enhance your experience and personalize the content and advertising you see.
Visit our Privacy Policy to learn more. By continuing to use the site, you agree to this use of cookies and data.

Météo par heure à Bolshie Karnyshi

Ce jour, 11 Août, Mardi

Heure Température Précipitation Vent Pression Humidité
00:00 +17°C° 0 mm 2 m/s 739 mmHg 91%
01:00 +17°C° 0 mm 2 m/s 739 mmHg 92%
02:00 +16°C° 0 mm 2 m/s 739 mmHg 93%
03:00 +16°C° 0 mm 2 m/s 739 mmHg 94%
04:00 +16°C° 0 mm 2 m/s 739 mmHg 95%
05:00 +15°C° 0 mm 2 m/s 739 mmHg 95%
06:00 +16°C° 0 mm 2 m/s 739 mmHg 93%
07:00 +17°C° 0 mm 3 m/s 739 mmHg 90%
08:00 +18°C° 0 mm 3 m/s 740 mmHg 87%
09:00 +19°C° 0 mm 3 m/s 740 mmHg 79%
10:00 +20°C° 0 mm 4 m/s 740 mmHg 71%
11:00 +21°C° 0 mm 4 m/s 740 mmHg 63%
12:00 +22°C° 0 mm 4 m/s 740 mmHg 59%
13:00 +22°C° 0 mm 5 m/s 740 mmHg 56%
14:00 +22°C° 0 mm 5 m/s 740 mmHg 52%
15:00 +22°C° 0 mm 5 m/s 740 mmHg 54%
16:00 +21°C° 0 mm 4 m/s 740 mmHg 56%
17:00 +21°C° 0 mm 4 m/s 740 mmHg 58%
18:00 +19°C° 0 mm 4 m/s 740 mmHg 65%
19:00 +18°C° 0 mm 3 m/s 740 mmHg 71%
20:00 +16°C° 0 mm 2 m/s 740 mmHg 77%
21:00 +15°C° 0 mm 2 m/s 740 mmHg 80%
22:00 +14°C° 0 mm 2 m/s 741 mmHg 82%
23:00 +13°C° 0 mm 2 m/s 741 mmHg 84%

Demain, 12 Août, Mercredi

Heure Température Précipitation Vent Pression Humidité
00:00 +13°C° 0 mm 2 m/s 741 mmHg 86%
01:00 +12°C° 0 mm 2 m/s 741 mmHg 88%
02:00 +12°C° 0 mm 2 m/s 741 mmHg 89%
03:00 +10°C° 0 mm 2 m/s 741 mmHg 91%
04:00 +10°C° 0 mm 2 m/s 741 mmHg 93%
05:00 +10°C° 0 mm 2 m/s 741 mmHg 95%
06:00 +12°C° 0 mm 2 m/s 741 mmHg 89%
07:00 +13°C° 0 mm 2 m/s 742 mmHg 83%
08:00 +14°C° 0 mm 3 m/s 742 mmHg 78%
09:00 +16°C° 0 mm 3 m/s 742 mmHg 72%
10:00 +17°C° 0 mm 3 m/s 742 mmHg 65%
11:00 +19°C° 0 mm 3 m/s 742 mmHg 59%
12:00 +19°C° 0 mm 3 m/s 742 mmHg 58%
13:00 +19°C° 0 mm 3 m/s 742 mmHg 57%
14:00 +20°C° 0 mm 3 m/s 742 mmHg 56%
15:00 +20°C° 0 mm 3 m/s 742 mmHg 58%
16:00 +19°C° 0 mm 3 m/s 742 mmHg 60%
17:00 +19°C° 0 mm 3 m/s 742 mmHg 62%
18:00 +18°C° 0 mm 3 m/s 742 mmHg 67%
19:00 +16°C° 0 mm 2 m/s 742 mmHg 72%
20:00 +14°C° 0 mm 2 m/s 741 mmHg 77%
21:00 +14°C° 0 mm 1 m/s 742 mmHg 79%
22:00 +13°C° 0 mm 1 m/s 742 mmHg 80%
23:00 +12°C° 0 mm 1 m/s 742 mmHg 82%

Après-demain, 13 Août, Jeudi

Heure Température Précipitation Vent Pression Humidité
00:00 +11°C° 0 mm 1 m/s 742 mmHg 83%
01:00 +11°C° 0 mm 1 m/s 741 mmHg 85%
02:00 +10°C° 0 mm 1 m/s 741 mmHg 86%
03:00 +9°C° 0 mm 0 m/s 741 mmHg 87%
04:00 +9°C° 0 mm 0 m/s 741 mmHg 88%
05:00 +8°C° 0 mm 0 m/s 741 mmHg 88%
06:00 +10°C° 0 mm 0 m/s 741 mmHg 82%
07:00 +12°C° 0 mm 0 m/s 741 mmHg 75%
08:00 +14°C° 0 mm 0 m/s 741 mmHg 69%
09:00 +16°C° 0 mm 0 m/s 741 mmHg 63%
10:00 +19°C° 0 mm 1 m/s 741 mmHg 58%
11:00 +20°C° 0 mm 1 m/s 741 mmHg 53%
12:00 +20°C° 0 mm 1 m/s 741 mmHg 53%
13:00 +21°C° 0 mm 1 m/s 741 mmHg 52%
14:00 +21°C° 0 mm 1 m/s 740 mmHg 52%
15:00 +21°C° 0 mm 1 m/s 740 mmHg 54%
16:00 +20°C° 0 mm 1 m/s 740 mmHg 56%
17:00 +20°C° 0 mm 1 m/s 740 mmHg 59%
18:00 +19°C° 0 mm 1 m/s 740 mmHg 65%
19:00 +16°C° 0 mm 1 m/s 740 mmHg 70%
20:00 +14°C° 0 mm 1 m/s 740 mmHg 76%
21:00 +14°C° 0 mm 1 m/s 740 mmHg 78%
22:00 +12°C° 0 mm 0 m/s 740 mmHg 79%
23:00 +11°C° 0 mm 0 m/s 740 mmHg 81%

14 Août, Vendredi

Heure Température Précipitation Vent Pression Humidité
00:00 +11°C° 0 mm 0 m/s 740 mmHg 83%
01:00 +11°C° 0 mm 0 m/s 740 mmHg 84%
02:00 +10°C° 0 mm 0 m/s 740 mmHg 86%
03:00 +10°C° 0 mm 0 m/s 740 mmHg 86%
04:00 +10°C° 0 mm 0 m/s 740 mmHg 87%
05:00 +10°C° 0 mm 0 m/s 740 mmHg 88%
06:00 +12°C° 0 mm 0 m/s 740 mmHg 82%
07:00 +13°C° 0 mm 0 m/s 740 mmHg 77%
08:00 +15°C° 0 mm 0 m/s 740 mmHg 71%
09:00 +17°C° 0 mm 0 m/s 741 mmHg 66%
10:00 +19°C° 0 mm 0 m/s 741 mmHg 61%
11:00 +22°C° 0 mm 1 m/s 741 mmHg 57%
12:00 +22°C° 0.1 mm 1 m/s 741 mmHg 56%
13:00 +23°C° 0.1 mm 1 m/s 740 mmHg 56%
14:00 +23°C° 0.1 mm 1 m/s 740 mmHg 55%
15:00 +22°C° 0.2 mm 1 m/s 740 mmHg 59%
16:00 +22°C° 0.2 mm 1 m/s 740 mmHg 62%
17:00 +22°C° 0.2 mm 1 m/s 740 mmHg 65%
18:00 +20°C° 0.1 mm 1 m/s 740 mmHg 70%
19:00 +19°C° 0.1 mm 1 m/s 740 mmHg 76%
20:00 +16°C° 0.1 mm 1 m/s 739 mmHg 81%
21:00 +15°C° 0 mm 1 m/s 740 mmHg 83%
22:00 +15°C° 0 mm 1 m/s 740 mmHg 84%
23:00 +14°C° 0 mm 1 m/s 740 mmHg 86%

15 Août, Samedi

Heure Température Précipitation Vent Pression Humidité
00:00 +14°C° 0 mm 1 m/s 740 mmHg 87%
01:00 +13°C° 0 mm 1 m/s 740 mmHg 88%
02:00 +13°C° 0 mm 1 m/s 740 mmHg 88%
03:00 +12°C° 0 mm 1 m/s 739 mmHg 89%
04:00 +12°C° 0 mm 1 m/s 739 mmHg 89%
05:00 +12°C° 0 mm 1 m/s 739 mmHg 89%
06:00 +13°C° 0 mm 1 m/s 739 mmHg 83%
07:00 +15°C° 0 mm 1 m/s 740 mmHg 78%
08:00 +18°C° 0 mm 1 m/s 740 mmHg 72%
09:00 +19°C° 0 mm 1 m/s 740 mmHg 66%
10:00 +21°C° 0 mm 1 m/s 740 mmHg 61%
11:00 +22°C° 0 mm 1 m/s 740 mmHg 55%
12:00 +23°C° 0 mm 1 m/s 740 mmHg 54%
13:00 +23°C° 0 mm 2 m/s 739 mmHg 52%
14:00 +24°C° 0 mm 2 m/s 739 mmHg 51%
15:00 +24°C° 0 mm 1 m/s 739 mmHg 52%
16:00 +24°C° 0 mm 1 m/s 739 mmHg 53%
17:00 +24°C° 0 mm 1 m/s 739 mmHg 54%
18:00 +22°C° 0 mm 1 m/s 738 mmHg 61%
19:00 +20°C° 0 mm 1 m/s 738 mmHg 67%
20:00 +18°C° 0 mm 1 m/s 738 mmHg 74%
21:00 +16°C° 0 mm 1 m/s 738 mmHg 77%
22:00 +14°C° 0 mm 0 m/s 738 mmHg 80%
23:00 +14°C° 0 mm 0 m/s 738 mmHg 83%

16 Août, Dimanche

Heure Température Précipitation Vent Pression Humidité
00:00 +13°C° 0 mm 0 m/s 738 mmHg 84%
01:00 +14°C° 0 mm 1 m/s 738 mmHg 85%
02:00 +14°C° 0 mm 1 m/s 738 mmHg 86%
03:00 +14°C° 0 mm 1 m/s 738 mmHg 86%
04:00 +13°C° 0 mm 1 m/s 738 mmHg 87%
05:00 +13°C° 0 mm 1 m/s 738 mmHg 88%
06:00 +15°C° 0 mm 1 m/s 738 mmHg 82%
07:00 +18°C° 0 mm 1 m/s 738 mmHg 77%
08:00 +19°C° 0 mm 1 m/s 738 mmHg 71%
09:00 +21°C° 0 mm 1 m/s 738 mmHg 66%
10:00 +21°C° 0 mm 2 m/s 738 mmHg 61%
11:00 +24°C° 0 mm 2 m/s 738 mmHg 57%
12:00 +24°C° 0.1 mm 2 m/s 738 mmHg 56%
13:00 +25°C° 0.1 mm 2 m/s 738 mmHg 55%
14:00 +25°C° 0.1 mm 3 m/s 738 mmHg 54%
15:00 +25°C° 0.1 mm 3 m/s 738 mmHg 56%
16:00 +25°C° 0.1 mm 3 m/s 738 mmHg 59%
17:00 +25°C° 0.1 mm 2 m/s 738 mmHg 61%
18:00 +23°C° 0.1 mm 2 m/s 737 mmHg 69%
19:00 +20°C° 0.1 mm 2 m/s 737 mmHg 77%
20:00 +18°C° 0.1 mm 2 m/s 737 mmHg 86%
21:00 +18°C° 0 mm 1 m/s 738 mmHg 87%
22:00 +18°C° 0 mm 1 m/s 738 mmHg 89%
23:00 +16°C° 0 mm 1 m/s 738 mmHg 90%
Voir plus